This demonstration page uses our WeatherBlox Daily Observations layout. Learn more.

Left ArrowRight Arrow

40.92945, -100.16068

Hourly Observations for February 16, 2022

Temp ( °F °C ) Dew Point ( °F °C ) Humidity (%) Winds ( mph kmh ) Pressure ( in mb ) Visibility ( mi km ) Precip ( " mm )
12:15 am 00:15 Clear 34 1 22 -5.6 62 62 N 9 15 29.75 1007 10 16 0.00 0.00
12:35 am 00:35 Clear 35 1.9 21 -6 56 56 N 9 15 29.75 1007 10 16 0.00 0.00
12:55 am 00:55 Clear 35 1.9 20 -6.6 54 54 N 10 17 29.75 1007 10 16 0.00 0.00
1:15 am 01:15 Clear 35 1.6 19 -7 53 53 N 16 26 29.74 1007 10 16 0.00 0.00
1:35 am 01:35 Clear 34 1.1 19 -7.1 55 55 N 20 31 29.76 1008 10 16 0.00 0.00
1:55 am 01:55 Clear 33 0.5 19 -7.5 55 55 N 15 24 29.76 1008 10 16 0.00 0.00
2:15 am 02:15 Clear 33 0.5 18 -7.7 55 55 N 16 26 29.77 1008 10 16 0.00 0.00
2:35 am 02:35 Clear 33 0.5 18 -8 53 53 N 22 35 29.77 1008 10 16 0.00 0.00
2:55 am 02:55 Clear 32 0.2 17 -8.1 54 54 N 18 30 29.78 1009 10 16 0.00 0.00
3:15 am 03:15 Clear 32 0 17 -8.2 54 54 N 16 26 29.79 1009 10 16 0.00 0.00
3:35 am 03:35 Clear 31 -0.3 17 -8.3 55 55 N 17 28 29.80 1009 10 16 0.00 0.00
3:55 am 03:55 Clear 30 -0.9 17 -8.5 57 57 N 17 28 29.79 1009 10 16 0.00 0.00
4:15 am 04:15 Clear 29 -1.5 17 -8.6 59 59 N 13 20 29.80 1009 10 16 0.00 0.00
4:35 am 04:35 Clear 28 -2 17 -8.5 61 61 N 15 24 29.83 1010 10 16 0.00 0.00
4:55 am 04:55 Clear 27 -2.7 17 -8.6 64 64 N 12 19 29.83 1010 10 16 0.00 0.00
5:15 am 05:15 Clear 27 -2.6 17 -8.4 65 65 N 13 20 29.83 1010 10 16 0.00 0.00
5:35 am 05:35 Clear 27 -3 17 -8.1 68 68 N 13 20 29.86 1011 10 16 0.00 0.00
5:55 am 05:55 Clear 27 -3 18 -7.7 70 70 N 12 19 29.86 1011 10 16 0.00 0.00
6:15 am 06:15 Partly Cloudy 27 -2.7 20 -6.7 74 74 N 14 22 29.86 1011 10 16 0.00 0.00
6:35 am 06:35 Cloudy 28 -2.2 20 -6.9 71 71 N 13 20 29.86 1011 10 16 0.00 0.00
6:55 am 06:55 Cloudy 28 -2 19 -7 69 69 N 10 17 29.87 1011 10 16 0.00 0.00
7:15 am 07:15 Cloudy 29 -1.6 19 -7 67 67 N 17 28 29.87 1012 10 16 0.00 0.00
7:35 am 07:35 Cloudy 29 -1.5 20 -6.7 68 68 NNE 17 28 29.87 1012 10 16 0.00 0.00
7:55 am 07:55 Cloudy 29 -1.5 20 -6.7 68 68 N 13 20 29.89 1012 10 16 0.00 0.00
8:15 am 08:15 Cloudy 29 -1.5 20 -6.6 69 69 N 14 22 29.90 1013 10 16 0.00 0.00
8:35 am 08:35 Cloudy 30 -1.2 20 -6.5 68 68 N 15 24 29.93 1013 10 16 0.00 0.00
8:55 am 08:55 Cloudy 30 -1 20 -6.5 67 67 N 16 26 29.93 1013 10 16 0.00 0.00
9:15 am 09:15 Cloudy 30 -1.1 20 -6.5 67 67 N 18 30 29.93 1013 10 16 0.00 0.00
9:35 am 09:35 Cloudy 30 -0.9 20 -6.5 66 66 N 20 31 29.93 1013 10 16 0.00 0.00
9:55 am 09:55 Cloudy 31 -0.5 20 -6.5 64 64 N 16 26 29.92 1013 10 16 0.00 0.00
10:15 am 10:15 Cloudy 31 -0.4 20 -6.6 63 63 N 21 33 29.92 1013 10 16 0.00 0.00
10:35 am 10:35 Cloudy 31 -0.4 20 -6.6 63 63 NNE 17 28 29.93 1014 10 16 0.00 0.00
10:55 am 10:55 Cloudy 33 0.8 21 -6.3 59 59 N 18 30 29.93 1013 10 16 0.00 0.00
11:15 am 11:15 Mostly Cloudy 34 1 20 -6.5 58 58 N 17 28 29.93 1013 10 16 0.00 0.00
11:35 am 11:35 Partly Cloudy 35 1.9 20 -6.5 54 54 N 16 26 29.91 1013 10 16 0.00 0.00
11:55 am 11:55 Sunny 37 2.5 20 -6.7 51 51 NNE 17 28 29.90 1013 10 16 0.00 0.00
12:15 pm 12:15 Sunny 37 2.6 20 -6.6 51 51 NNE 17 28 29.90 1013 10 16 0.00 0.00
12:35 pm 12:35 Sunny 38 3.2 20 -6.6 49 49 NNE 16 26 29.89 1012 10 16 0.00 0.00
12:55 pm 12:55 Partly Cloudy 38 3.1 20 -6.8 49 49 N 20 31 29.89 1012 10 16 0.00 0.00
1:15 pm 13:15 Mostly Cloudy 37 2.9 19 -7 49 49 N 18 30 29.89 1012 10 16 0.00 0.00
1:35 pm 13:35 Cloudy 37 2.9 19 -7.2 48 48 NE 16 26 29.90 1012 10 16 0.00 0.00
1:55 pm 13:55 Cloudy 37 2.8 19 -7.3 48 48 N 20 31 29.89 1012 10 16 0.00 0.00
2:15 pm 14:15 Cloudy 37 2.9 18 -7.6 46 46 NNE 18 30 29.90 1012 10 16 0.00 0.00
2:35 pm 14:35 Cloudy 37 2.6 18 -7.9 46 46 NNE 20 31 29.91 1013 10 16 0.00 0.00
2:55 pm 14:55 Cloudy 36 2 17 -8.4 46 46 NNE 22 35 29.91 1013 10 16 0.00 0.00
3:15 pm 15:15 Cloudy 36 2.1 17 -8.5 46 46 NNE 22 35 29.92 1013 10 16 0.00 0.00
3:35 pm 15:35 Cloudy 34 1.1 15 -9.2 47 47 NE 21 33 29.94 1014 10 16 0.00 0.00
3:55 pm 15:55 Cloudy 33 0.5 15 -9.2 49 49 NNE 21 33 29.96 1015 10 16 0.00 0.00
4:15 pm 16:15 Cloudy 33 0.3 14 -10.2 46 46 NNE 23 37 29.97 1015 10 16 0.00 0.00
4:35 pm 16:35 Cloudy 32 0 12 -11 44 44 NNE 21 33 29.99 1015 10 16 0.00 0.00
4:55 pm 16:55 Cloudy 32 0 13 -10.3 46 46 NNE 18 30 30.01 1016 10 16 0.00 0.00
5:15 pm 17:15 Cloudy 32 0 13 -10.6 45 45 NNE 17 28 30.02 1016 10 16 0.00 0.00
5:35 pm 17:35 Cloudy 31 -0.3 13 -10.5 46 46 NNE 15 24 30.04 1017 10 16 0.00 0.00
5:55 pm 17:55 Cloudy 31 -0.7 13 -10.4 48 48 NNE 17 28 30.05 1018 10 16 0.00 0.00
6:15 pm 18:15 Cloudy 30 -1 12 -11 47 47 NNE 14 22 30.08 1019 10 16 0.00 0.00
6:35 pm 18:35 Cloudy 30 -1.1 12 -11 47 47 NNE 14 22 30.10 1019 10 16 0.00 0.00
6:55 pm 18:55 Cloudy 30 -1.2 13 -10.6 49 49 N 14 22 30.12 1020 10 16 0.00 0.00
7:15 pm 19:15 Cloudy 29 -1.6 14 -10.2 52 52 NNE 21 33 30.14 1021 10 16 0.00 0.00
7:35 pm 19:35 Cloudy 29 -1.9 14 -10 54 54 NNE 18 30 30.16 1021 10 16 0.00 0.00
7:55 pm 19:55 Cloudy 28 -2.3 16 -9 60 60 N 23 37 30.18 1022 10 16 0.00 0.00
8:15 pm 20:15 Cloudy 27 -3 16 -9.1 63 63 N 24 39 30.20 1023 10 16 0.00 0.00
8:35 pm 20:35 Cloudy 26 -3.4 16 -9 66 66 N 18 30 30.22 1023 10 16 0.00 0.00
8:55 pm 20:55 Cloudy 25 -3.8 16 -9 68 68 N 22 35 30.24 1024 10 16 0.00 0.00
9:15 pm 21:15 Cloudy 25 -3.8 17 -8.4 71 71 N 17 28 30.25 1024 10 16 0.00 0.00
9:35 pm 21:35 Cloudy 25 -4 17 -8.2 73 73 N 16 26 30.27 1025 10 16 0.00 0.00
9:55 pm 21:55 Cloudy 24 -4.2 18 -8 75 75 NNE 21 33 30.27 1025 10 16 0.00 0.00
10:15 pm 22:15 Cloudy 24 -4.2 17 -8.2 74 74 NNE 17 28 30.27 1025 10 16 0.00 0.00
10:35 pm 22:35 Cloudy 24 -4.3 17 -8.5 73 73 N 17 28 30.28 1025 10 16 0.00 0.00
10:55 pm 22:55 Cloudy 24 -4.3 17 -8.6 72 72 N 13 20 30.27 1025 10 16 0.00 0.00
11:15 pm 23:15 Cloudy 24 -4.5 17 -8.3 75 75 N 10 17 30.28 1026 10 16 0.00 0.00
11:35 pm 23:35 Cloudy 24 -4.5 17 -8.2 76 76 N 12 19 30.28 1026 10 16 0.00 0.00
11:55 pm 23:55 Cloudy 24 -4.5 16 -9.1 71 71 N 14 22 30.27 1025 10 16 0.00 0.00

Powered by AerisWeather